Lid_Strength_Index
1 1 1 1 1 2 2 1 0 0 0 0 -0 -0 -0 0 1 0 1 1 1 1
1 1 1 1 1 1 1 1 0 0 0 0 0 0 0 1 1 1 1 1 1 1
1 1 1 1 1 1 0 0 0 0 0 0 0 0 0 1 0 1 1 1 1 1
1 1 1 1 1 1 0 0 1 1 1 1 1 0 1 1 1 1 1 1 1 1
1 1 1 1 1 0 1 0 1 1 1 1 1 1 1 1 1 1 2 1 1 1
2 2 1 1 1 1 1 1 1 1 1 1 1 1 1 1 1 1 1 1 1 1
2 2 1 1 1 1 1 1 1 1 1 1 1 1 1 1 1 1 1 0 0 1
2 1 1 1 1 1 1 1 1 1 1 1 1 1 1 1 1 1 1 1 1 0
2 2 1 1 1 1 1 1 1 1 1 1 1 9 7 2 1 1 1 1 1 0
2 2 2 2 2 2 2 2 2 1 1 1 1 11 10 7 1 1 1 1 1 1
3 3 2 2 2 2 2 2 2 2 2 3 7 12 11 8 0 1 1 1 1 1
2 3 3 3 3 2 2 2 2 3 3 3 5 12 10 4 1 1 1 1 0 0
2 3 3 3 2 2 2 4 4 4 3 6 4 12 10 3 1 1 1 1 0 7
2 2 2 2 2 3 4 5 4 4 2 2 3 6 10 8 1 1 2 2 2 1